[[{"header":{"parameterUnit":"m.s-1","parameterCategory":2,"la1":30.2991,"la2":30.254,"lo1":-89.0895,"lo2":-89.0444,"dy":0.0017,"dx":0.0017,"nx":28,"ny":28,"refTime":"2023-08-01T21:00:00:Z","depth":"0","parameterNumber":2,"parameterNumberName":"U-component_of_CURRENTS"},"data":[0,0,0,0,0,0,0,0,0,0,0,0,0,0,0,0,0,0,0,0,0,0,0,0,0,0,0,0,0,0,0,0,0,0,0,0,0,0,0,0,0,0,0,0,0,0,0,0,0,0,0,0,0,0,0,0,0,0,0.4043,0.4044,0,0.4135,0.4136,0.4137,0.4138,0.4137,0.4135,0.4134,0.415,0.4151,0.4153,0,0,0,0,0,0,0,0,0,0,0,0,0,0.3901,0.3903,0.4043,0.4044,0.4045,0.4135,0.4136,0.4138,0.4138,0.4137,0.4135,0.4134,0.4149,0.4151,0.4153,0,0,0,0,0,0,0,0,0,0,0,0,0,0.3976,0.3904,0.4043,0.4055,0.4057,0.4135,0.4136,0.4138,0.4139,0.4137,0.4135,0.4133,0.4149,0.4151,0.4153,0.4207,0,0,0.4161,0.4162,0,0,0,0,0,0,0,0,0.3971,0.3981,0.4052,0.4054,0.4057,0.4122,0.4092,0.4157,0.4139,0.4109,0.4134,0.4132,0.4134,0.4138,0.4162,0.4208,0.4209,0.4161,0.4163,0.4164,0.4164,0,0,0,0,0,0,0,0.3966,0.3977,0.4081,0.4054,0.4056,0.4067,0.4076,0.4105,0.4131,0.4111,0.4111,0.412,0.4134,0.416,0.4162,0.4209,0.4161,0.4163,0.4165,0.4166,0.4454,0.446,0,0,0,0,0,0,0.3953,0.3973,0.4078,0.4083,0.4007,0.4071,0.4081,0.4104,0.4132,0.4135,0.4122,0.412,0.4157,0.4159,0.4163,0.4367,0.4164,0.4166,0.4167,0.4448,0.4456,0.4463,0,0,0,0,0,0,0.395,0.3963,0.4074,0.4028,0.4042,0.4075,0.4102,0.4107,0.4131,0.4141,0.4142,0.4139,0.4155,0.4159,0.4255,0.4361,0.4167,0.4169,0.4441,0.4451,0.4459,0.4685,0,0,0,0,0,0,0.3946,0.3961,0.3979,0.4028,0.4045,0.4146,0.4104,0.411,0.4138,0.4137,0.4157,0.4156,0.4154,0.4252,0.4257,0.4361,0.4171,0.4433,0.4445,0.4456,0.467,0.4701,0.4728,0,0,0,0,0,0.3941,0.3993,0.398,0.3993,0.4067,0.4148,0.416,0.4176,0.4141,0.4183,0.4222,0.4155,0.4329,0.4259,0.4264,0.4371,0.4427,0.4442,0.4455,0.4657,0.4695,0.4727,0,0,0,0,0,0,0.3949,0.3999,0.3986,0.405,0.4098,0.4148,0.4189,0.4183,0.4244,0.4243,0.423,0.4238,0.4373,0.4341,0.4264,0.4494,0.4369,0.4385,0.4521,0.4556,0.4585,0.4612,0.4173,0,0,0,0,0,0.3954,0.4002,0.4045,0.4098,0.4122,0.4148,0.4179,0.4195,0.4248,0.427,0.4296,0.4344,0.4438,0.4466,0.4533,0.4638,0.4637,0.4714,0.4743,0.4768,0.4798,0.4902,0.4942,0.4508,0.4508,0.4508,0,0,0.397,0.4004,0.403,0.4101,0.4135,0.4228,0.4165,0.4233,0.4336,0.4264,0.4414,0.4446,0.4494,0.4649,0.4702,0.4628,0.49,0.4785,0.4806,0.4823,0.4921,0.4963,0.5,0.4518,0.4516,0.4515,0,0,0.4049,0.4058,0.413,0.4181,0.4243,0.4286,0.4304,0.4373,0.4427,0.4562,0.4571,0.468,0.4769,0.4866,0.4915,0.5138,0.5059,0.5136,0.5291,0.5393,0.5429,0.546,0.5538,0.5574,0.5137,0.5137,0.5138,0,0.4059,0.4171,0.4165,0.4255,0.4321,0.4318,0.4431,0.4508,0.4609,0.4691,0.4639,0.4871,0.4898,0.5124,0.5217,0.5207,0.5224,0.5149,0.5429,0.546,0.5488,0.556,0.5597,0.515,0.5148,0.5147,0.5146,0,0.4205,0.4293,0.4347,0.4466,0.4528,0.4635,0.4719,0.4817,0.4862,0.4936,0.5142,0.5203,0.5328,0.5373,0.5366,0.5602,0.5538,0.546,0.5331,0.5545,0.5607,0.5642,0.5168,0.5163,0.5159,0.5156,0,0,0.427,0.4419,0.4445,0.4536,0.4656,0.4736,0.4916,0.5099,0.5231,0.5331,0.5514,0.57,0.5683,0.5741,0.5744,0.5838,0.6067,0.5737,0.5737,0.58,0.6279,0.6121,0.6142,0.6017,0.6024,0.6029,0.6249,0,0.4406,0.4607,0.4646,0.4866,0.4996,0.5046,0.5219,0.5365,0.5471,0.5647,0.5741,0.5899,0.5837,0.589,0.5996,0.6046,0.6165,0.6014,0.6076,0.6079,0.5899,0.618,0.5845,0.6002,0.6282,0.6288,0.6292,0,0.4593,0.4697,0.4917,0.5108,0.5162,0.5285,0.553,0.567,0.5888,0.5957,0.6097,0.6131,0.6335,0.6206,0.6429,0.6322,0.6345,0.6361,0.6367,0.6163,0.5986,0.5832,0.6052,0.5848,0.6343,0.6339,0.6336,0,0.4734,0.4921,0.5105,0.517,0.5363,0.5481,0.5587,0.5789,0.5893,0.6137,0.6196,0.642,0.6487,0.6596,0.6614,0.6541,0.6804,0.6695,0.6594,0.658,0.6282,0.623,0.6294,0.6884,0.6883,0.6883,0.6882,0,0.4949,0.5094,0.5181,0.5303,0.5474,0.5584,0.5777,0.5913,0.6084,0.618,0.6333,0.641,0.6576,0.6698,0.6732,0.6776,0.6905,0.6701,0.6661,0.6352,0.6307,0.6095,0.5998,0.6891,0.6889,0.6887,0.6886,0,0.5113,0.5199,0.538,0.5537,0.5561,0.5686,0.5782,0.5903,0.6073,0.619,0.6254,0.6454,0.661,0.6756,0.6935,0.6881,0.6764,0.6942,0.6562,0.6473,0.6138,0.6064,0.5991,0.5828,0.69,0.6898,0.6896,0,0.5214,0.5336,0.546,0.5482,0.5545,0.5663,0.5717,0.5883,0.5949,0.6155,0.6196,0.6418,0.6478,0.6725,0.6756,0.687,0.6682,0.6586,0.6403,0.6151,0.6043,0.5882,0.5738,0.6116,0.6108,0.6102,0.6096,0,0.534,0.5381,0.5473,0.5483,0.5536,0.5562,0.5641,0.5681,0.584,0.5924,0.6006,0.6091,0.6315,0.6265,0.6435,0.6453,0.6234,0.645,0.6301,0.5562,0.5283,0.5089,0.5937,0.6038,0.6044,0.6048,0.6051,0.6054,0.5347,0.5358,0.5406,0.5407,0.5432,0.5398,0.5358,0.5417,0.5452,0.5482,0.5714,0.5723,0.5793,0.5973,0.5979,0.5751,0.5838,0.5533,0.5513,0.5413,0.5104,0.5827,0.5794,0.5798,0.5802,0.5805,0.5808,0,0.5246,0.5247,0.5271,0.5227,0.5167,0.5233,0.5219,0.5118,0.5031,0.5171,0.5209,0.5163,0.5104,0.5169,0.5034,0.4832,0.468,0.4695,0.4384,0.4328,0.5061,0.4867,0.4492,0.4492,0.4492,0.4492,0.4493,0.4493,0.5187,0.5136,0.5115,0.4937,0.4892,0.4695,0.4641,0.4533,0.4561,0.4414,0.4355,0.4457,0.4543,0.4471,0.4238,0.4147,0.3862,0.3663,0.376,0.423,0.4305,0.4377,0.4175,0.3661,0.366,0.2817,0.281,0.2805]},{"header":{"parameterUnit":"m.s-1","parameterCategory":2,"la1":30.2991,"la2":30.254,"lo1":-89.0895,"lo2":-89.0444,"dy":0.0017,"dx":0.0017,"nx":28,"ny":28,"refTime":"2023-08-01T21:00:00:Z","depth":"0","parameterNumber":3,"parameterNumberName":"V-component_of_CURRENTS"},"data":[0,0,0,0,0,0,0,0,0,0,0,0,0,0,0,0,0,0,0,0,0,0,0,0,0,0,0,0,0,0,0,0,0,0,0,0,0,0,0,0,0,0,0,0,0,0,0,0,0,0,0,0,0,0,0,0,0,0,0.0082,0.0082,0,0.0034,0.0034,0.0033,-0.003,-0.0031,-0.0032,-0.0033,-0.0095,-0.0096,-0.0097,0,0,0,0,0,0,0,0,0,0,0,0,0,0.0097,0.0097,0.0082,0.0082,0.0082,0.0035,0.0034,0.0033,-0.003,-0.0031,-0.0032,-0.0033,-0.0095,-0.0096,-0.0097,0,0,0,0,0,0,0,0,0,0,0,0,0,0.0071,0.0097,0.0083,0.0047,0.0044,0.0035,0.0033,0.0032,-0.003,-0.0031,-0.0032,-0.0033,-0.0094,-0.0096,-0.0097,-0.0085,0,0,-0.0102,-0.0102,0,0,0,0,0,0,0,0,0.0072,0.007,0.0053,0.005,0.0046,0.001,0.0016,-0.0006,-0.003,-0.0006,-0.0033,-0.0034,-0.0058,-0.0063,-0.0074,-0.0088,-0.0091,-0.0102,-0.0103,-0.0103,-0.0104,0,0,0,0,0,0,0,0.0074,0.0071,0.006,0.0053,0.0049,0.0027,0.0021,0.0011,-0.0028,-0.0008,-0.0012,-0.0011,-0.0061,-0.0073,-0.0076,-0.0092,-0.0102,-0.0103,-0.0104,-0.0105,0.0001,0.0005,0,0,0,0,0,0,0.009,0.0073,0.0061,0.0059,0.0061,0.0028,0.0022,0.002,-0.0028,-0.0035,-0.001,-0.0014,-0.0069,-0.0074,-0.0078,0.0039,-0.0103,-0.0105,-0.0106,-0.0002,0.0002,0.0006,0,0,0,0,0,0,0.009,0.0089,0.0063,0.0068,0.0063,0.0029,0.0027,0.0019,0.0009,-0.0029,-0.0037,-0.0012,-0.007,-0.0076,-0.0063,0.0032,-0.0105,-0.0107,-0.0007,-0.0001,0.0004,0.0205,0,0,0,0,0,0,0.0091,0.0089,0.0098,0.0069,0.0064,0.0077,0.0028,0.0019,0.0013,0.0008,-0.0033,-0.004,-0.0072,-0.006,-0.0064,0.0027,-0.0108,-0.0012,-0.0004,0.0002,0.0194,0.0217,0.0237,0,0,0,0,0,0.0091,0.0123,0.0098,0.0097,0.0075,0.0079,0.0075,0.0043,0.0015,0.0026,0.0005,-0.0039,-0.0018,-0.0059,-0.0064,0.0029,-0.0015,-0.0006,0.0002,0.0184,0.0212,0.0236,0,0,0,0,0,0,0.0143,0.0118,0.0091,0.0114,0.0101,0.007,0.0087,0.0053,0.0043,0.0044,-0.001,-0.0017,0.0037,-0.0001,-0.0045,0.0081,-0.0015,-0.0008,0.0126,0.0151,0.0173,0.0225,-0.0109,0,0,0,0,0,0.0156,0.017,0.0137,0.016,0.0157,0.0119,0.0116,0.0096,0.0082,0.0074,0.0052,0.0046,0.0069,0.0079,0.0078,0.0134,0.0093,0.0197,0.0218,0.0237,0.0277,0.0286,0.0311,0.0033,0.0033,0.0033,0,0,0.0185,0.0174,0.0182,0.0172,0.016,0.0203,0.0115,0.0131,0.0188,0.0073,0.0144,0.011,0.0096,0.0171,0.0194,0.0151,0.0292,0.0247,0.0263,0.0294,0.0297,0.0324,0.0348,0.0039,0.0038,0.0037,0,0,0.0268,0.0239,0.028,0.0283,0.0278,0.0269,0.0277,0.0257,0.0266,0.0313,0.0267,0.0297,0.0303,0.0337,0.035,0.049,0.0398,0.048,0.0642,0.065,0.0673,0.0693,0.0663,0.0678,0.05,0.0501,0.0501,0,0.0303,0.035,0.0297,0.0347,0.0377,0.0311,0.0382,0.0396,0.039,0.0427,0.0369,0.0431,0.0407,0.0531,0.0585,0.0547,0.0502,0.0543,0.0679,0.0697,0.0714,0.0678,0.0693,0.0512,0.051,0.0509,0.0508,0,0.042,0.0461,0.0495,0.0541,0.0564,0.0615,0.0624,0.0663,0.0658,0.0666,0.0754,0.0719,0.0759,0.0766,0.0721,0.085,0.0761,0.0694,0.0613,0.0754,0.0707,0.0719,0.0527,0.0523,0.052,0.0517,0,0,0.0515,0.0564,0.0584,0.0634,0.0672,0.0709,0.0823,0.0904,0.0996,0.099,0.1109,0.1147,0.1094,0.1107,0.1051,0.1068,0.114,0.0942,0.0938,0.0913,0.1121,0.1037,0.1039,0.1074,0.1078,0.1081,0.1035,0,0.0633,0.0757,0.0759,0.0908,0.0976,0.0973,0.1089,0.1154,0.1192,0.1289,0.1281,0.1357,0.1236,0.1258,0.1263,0.118,0.1181,0.1157,0.0988,0.0984,0.0893,0.1056,0.0962,0.0913,0.1045,0.1047,0.1048,0,0.0772,0.0835,0.0984,0.1094,0.1126,0.1213,0.1372,0.1459,0.1571,0.1599,0.1655,0.162,0.1687,0.1537,0.1484,0.146,0.1321,0.123,0.1224,0.1092,0.0925,0.0796,0.0927,0.0661,0.1064,0.1063,0.1062,0,0.0889,0.1008,0.1132,0.1171,0.1282,0.1371,0.1442,0.1563,0.1661,0.1796,0.1877,0.1897,0.1938,0.1797,0.1618,0.1547,0.1519,0.139,0.1181,0.117,0.1038,0.1011,0.09,0.1347,0.1347,0.1347,0.1347,0,0.1037,0.1146,0.1195,0.1273,0.1437,0.1477,0.1665,0.1745,0.1881,0.2036,0.2031,0.2158,0.2003,0.1956,0.1727,0.1521,0.1602,0.126,0.1185,0.1102,0.1083,0.0798,0.0674,0.1345,0.1345,0.1346,0.1346,0,0.118,0.1206,0.1354,0.1466,0.1497,0.1626,0.1768,0.1906,0.2021,0.2229,0.2286,0.2379,0.2342,0.2143,0.1951,0.1688,0.1318,0.1361,0.1265,0.118,0.0704,0.0596,0.0438,0.0357,0.1128,0.1126,0.1124,0,0.1257,0.1348,0.1475,0.1543,0.1602,0.1749,0.1856,0.1974,0.212,0.237,0.2495,0.2554,0.2617,0.2319,0.1907,0.1526,0.1285,0.1146,0.101,0.0723,0.0546,0.046,0.0399,0.0895,0.0892,0.0889,0.0887,0,0.1412,0.1462,0.1564,0.168,0.1793,0.193,0.2089,0.2219,0.2399,0.2589,0.2826,0.29,0.2657,0.2301,0.1797,0.1484,0.0954,0.1075,0.0819,0.0424,0.0286,0.0156,0.0849,0.0863,0.0865,0.0867,0.0868,0.0869,0.1506,0.1595,0.1688,0.1813,0.1934,0.2096,0.2238,0.2423,0.266,0.2955,0.3015,0.3152,0.2604,0.1932,0.1535,0.069,0.0771,0.0377,0.0288,0.024,0.0128,0.0767,0.0668,0.067,0.0671,0.0672,0.0673,0,0.1575,0.1659,0.1789,0.193,0.2075,0.2124,0.2375,0.2536,0.2821,0.3072,0.3254,0.2979,0.2303,0.1611,0.0505,-0.0022,-0.0184,-0.0301,-0.0458,-0.0465,0.0118,0.0069,-0.0212,-0.0212,-0.0212,-0.0212,-0.0211,-0.0211,0.1604,0.1725,0.1786,0.1996,0.211,0.2318,0.2473,0.2721,0.2936,0.3161,0.3189,0.3171,0.2506,0.0725,-0.0511,-0.0758,-0.1009,-0.1117,-0.1175,-0.084,-0.0785,-0.0732,-0.0808,-0.1268,-0.1269,-0.1747,-0.1752,-0.1756]}],[{"header":{"parameterUnit":"m.s-1","parameterCategory":2,"la1":30.2991,"la2":30.254,"lo1":-89.0895,"lo2":-89.0444,"dy":0.0017,"dx":0.0017,"nx":28,"ny":28,"refTime":"2023-08-01T21:00:00:Z","depth":"2","parameterNumber":2,"parameterNumberName":"U-component_of_CURRENTS"},"data":[0,0,0,0,0,0,0,0,0,0,0,0,0,0,0,0,0,0,0,0,0,0,0,0,0,0,0,0,0,0,0,0,0,0,0,0,0,0,0,0,0,0,0,0,0,0,0,0,0,0,0,0,0,0,0,0,0,0,0.3152,0.3153,0,0.3223,0.3224,0.3224,0.3215,0.3214,0.3213,0.3213,0.3215,0.3216,0.3217,0,0,0,0,0,0,0,0,0,0,0,0,0,0.3025,0.3027,0.3152,0.3154,0.3155,0.3223,0.3224,0.3224,0.3215,0.3214,0.3213,0.3212,0.3215,0.3216,0.3217,0,0,0,0,0,0,0,0,0,0,0,0,0,0.3082,0.3028,0.3152,0.3162,0.3164,0.3223,0.3224,0.3224,0.3215,0.3214,0.3213,0.3212,0.3215,0.3216,0.3217,0.3247,0,0,0.322,0.3221,0,0,0,0,0,0,0,0,0.3079,0.3086,0.3159,0.3161,0.3163,0.3213,0.318,0.323,0.3215,0.3191,0.3213,0.3211,0.3212,0.3213,0.3224,0.3247,0.3247,0.322,0.3221,0.3222,0.3222,0,0,0,0,0,0,0,0.3075,0.3084,0.3176,0.3161,0.3163,0.3169,0.3175,0.3189,0.3202,0.3193,0.3194,0.3209,0.3212,0.3223,0.3223,0.3247,0.322,0.3221,0.3222,0.3223,0.3459,0.3464,0,0,0,0,0,0,0.3076,0.308,0.3174,0.3178,0.3123,0.3172,0.3179,0.3195,0.3203,0.3206,0.321,0.3208,0.3221,0.3222,0.3223,0.339,0.3222,0.3223,0.3223,0.3453,0.346,0.3466,0,0,0,0,0,0,0.3073,0.3084,0.3171,0.3134,0.3146,0.3176,0.3193,0.3197,0.3218,0.3218,0.3217,0.3229,0.322,0.3222,0.3265,0.3385,0.3223,0.3224,0.3447,0.3455,0.3463,0.3639,0,0,0,0,0,0,0.3069,0.3082,0.3104,0.3134,0.3148,0.3219,0.3195,0.3199,0.323,0.3229,0.3234,0.3233,0.322,0.3264,0.3266,0.3383,0.3225,0.344,0.345,0.346,0.3626,0.3653,0.3675,0,0,0,0,0,0.3064,0.3104,0.3105,0.3117,0.3174,0.3221,0.3229,0.3242,0.3233,0.3254,0.3266,0.3233,0.3334,0.3268,0.327,0.339,0.3434,0.3447,0.346,0.3615,0.3647,0.3674,0,0,0,0,0,0,0.3067,0.3109,0.3109,0.3161,0.3192,0.3221,0.3252,0.3255,0.3283,0.3291,0.3269,0.3271,0.3362,0.3351,0.3278,0.3497,0.3394,0.3407,0.3513,0.3542,0.3566,0.3539,0.3226,0,0,0,0,0,0.3077,0.3126,0.3147,0.3201,0.3207,0.323,0.3254,0.3271,0.3297,0.3308,0.3321,0.336,0.3419,0.3452,0.3483,0.3582,0.3568,0.3676,0.37,0.372,0.3706,0.3789,0.3818,0.3507,0.3507,0.3507,0,0,0.3089,0.3132,0.3153,0.3207,0.3227,0.3265,0.3241,0.3297,0.3349,0.3306,0.3386,0.3425,0.3458,0.3578,0.3623,0.3582,0.3815,0.3736,0.3753,0.3727,0.3805,0.3834,0.3861,0.3516,0.3514,0.3513,0,0,0.3142,0.3175,0.3213,0.3247,0.3302,0.3322,0.3338,0.3382,0.3413,0.3493,0.3504,0.3595,0.3669,0.3735,0.3771,0.3945,0.3925,0.4003,0.4119,0.4203,0.4227,0.4249,0.4311,0.4336,0.4034,0.4035,0.4035,0,0.3157,0.3217,0.3234,0.3283,0.3335,0.3345,0.34,0.3434,0.3502,0.3539,0.3539,0.3731,0.3741,0.3915,0.3991,0.3997,0.4039,0.4,0.423,0.4251,0.427,0.4328,0.4353,0.4045,0.4044,0.4042,0.4042,0,0.3226,0.3277,0.3311,0.3377,0.343,0.3496,0.3538,0.3592,0.364,0.3675,0.3843,0.3919,0.4046,0.4099,0.4091,0.4288,0.4274,0.4232,0.4142,0.4311,0.4363,0.4386,0.4059,0.4055,0.4052,0.405,0,0,0.3246,0.3337,0.3351,0.3411,0.3499,0.3561,0.3638,0.3715,0.378,0.3892,0.4066,0.4173,0.4248,0.4299,0.4375,0.4448,0.4624,0.4421,0.4421,0.4458,0.4826,0.4587,0.4588,0.4644,0.4648,0.4652,0.4821,0,0.3295,0.3389,0.3449,0.3578,0.3618,0.3689,0.3758,0.3838,0.3915,0.4081,0.4212,0.4344,0.4326,0.4436,0.4548,0.4579,0.4689,0.4581,0.4676,0.4678,0.4424,0.4607,0.4263,0.4364,0.4843,0.4847,0.485,0,0.3314,0.34,0.3511,0.3665,0.3695,0.3775,0.3925,0.4032,0.419,0.4253,0.4448,0.4521,0.471,0.4681,0.4848,0.4794,0.4845,0.485,0.4857,0.4571,0.448,0.4269,0.4387,0.4887,0.4884,0.4882,0.4879,0,0.3295,0.3441,0.3554,0.3611,0.3772,0.385,0.3954,0.4059,0.4139,0.4391,0.4482,0.47,0.4909,0.4941,0.4938,0.4922,0.5102,0.5073,0.492,0.4904,0.4586,0.4531,0.5222,0.5222,0.5221,0.5221,0.522,0,0.3315,0.3366,0.3548,0.3631,0.374,0.3893,0.4009,0.4116,0.4318,0.4452,0.4623,0.4762,0.4986,0.5092,0.5042,0.503,0.5185,0.4957,0.4939,0.4641,0.4592,0.5001,0.4973,0.5227,0.5226,0.5225,0.5224,0,0.3178,0.3308,0.3438,0.3671,0.3725,0.382,0.3973,0.4042,0.4251,0.4491,0.4565,0.4879,0.4976,0.5078,0.52,0.5168,0.5102,0.5071,0.469,0.4619,0.4848,0.4829,0.4949,0.4942,0.4936,0.4931,0.4927,0,0.309,0.3166,0.3436,0.3513,0.3602,0.3724,0.3762,0.3962,0.4064,0.4463,0.46,0.484,0.4909,0.5001,0.4944,0.4851,0.4997,0.4529,0.44,0.4854,0.4826,0.4815,0.4803,0.4099,0.4088,0.408,0.4073,0,0.298,0.3096,0.3257,0.3358,0.3451,0.3528,0.3664,0.371,0.4035,0.4142,0.4363,0.4437,0.4684,0.4483,0.4481,0.4359,0.4481,0.4346,0.4974,0.4171,0.4051,0.4023,0.4041,0.3996,0.4003,0.4009,0.4013,0.4016,0.2909,0.2927,0.3143,0.3215,0.3309,0.3361,0.3377,0.3512,0.3595,0.3822,0.4014,0.4033,0.4174,0.3929,0.3764,0.3725,0.4024,0.3879,0.3908,0.3946,0.3767,0.3637,0.3474,0.3478,0.3482,0.3485,0.3488,0,0.2827,0.2861,0.2946,0.3045,0.3049,0.3229,0.3321,0.3248,0.3266,0.3451,0.3504,0.3195,0.3092,0.3218,0.3043,0.3021,0.3026,0.2909,0.2918,0.2996,0.3065,0.2842,0.2304,0.23,0.2296,0.2293,0,0,0.2776,0.2783,0.279,0.277,0.2897,0.2924,0.3005,0.2885,0.2891,0.272,0.2731,0.2921,0.3096,0.2638,0.2587,0.2434,0.2691,0.2334,0.329,0.3378,0.3442,0.3634,0.3378,0,0,0,0,0]},{"header":{"parameterUnit":"m.s-1","parameterCategory":2,"la1":30.2991,"la2":30.254,"lo1":-89.0895,"lo2":-89.0444,"dy":0.0017,"dx":0.0017,"nx":28,"ny":28,"refTime":"2023-08-01T21:00:00:Z","depth":"2","parameterNumber":3,"parameterNumberName":"V-component_of_CURRENTS"},"data":[0,0,0,0,0,0,0,0,0,0,0,0,0,0,0,0,0,0,0,0,0,0,0,0,0,0,0,0,0,0,0,0,0,0,0,0,0,0,0,0,0,0,0,0,0,0,0,0,0,0,0,0,0,0,0,0,0,0,-0.0092,-0.0093,0,-0.0146,-0.0147,-0.0148,-0.0193,-0.0193,-0.0193,-0.0193,-0.0266,-0.0268,-0.0269,0,0,0,0,0,0,0,0,0,0,0,0,0,-0.0076,-0.0076,-0.0092,-0.0093,-0.0093,-0.0146,-0.0147,-0.0148,-0.0193,-0.0193,-0.0193,-0.0193,-0.0265,-0.0267,-0.027,0,0,0,0,0,0,0,0,0,0,0,0,0,-0.0104,-0.0076,-0.0092,-0.0119,-0.0122,-0.0146,-0.0147,-0.0148,-0.0193,-0.0193,-0.0193,-0.0193,-0.0265,-0.0267,-0.027,-0.028,0,0,-0.0278,-0.0279,0,0,0,0,0,0,0,0,-0.0103,-0.0105,-0.0115,-0.0117,-0.0121,-0.016,-0.0168,-0.0192,-0.0192,-0.0169,-0.0193,-0.0194,-0.023,-0.0236,-0.0249,-0.0283,-0.0287,-0.0278,-0.028,-0.0281,-0.0282,0,0,0,0,0,0,0,-0.0101,-0.0103,-0.0117,-0.0115,-0.0119,-0.0145,-0.015,-0.0173,-0.02,-0.0171,-0.0174,-0.0175,-0.0232,-0.0247,-0.0251,-0.0288,-0.0278,-0.028,-0.0282,-0.0283,-0.0307,-0.0306,0,0,0,0,0,0,-0.0085,-0.0101,-0.0115,-0.0118,-0.0109,-0.0145,-0.015,-0.015,-0.0199,-0.0206,-0.0175,-0.0177,-0.0242,-0.0248,-0.0254,-0.023,-0.0281,-0.0283,-0.0285,-0.0308,-0.0307,-0.0306,0,0,0,0,0,0,-0.0084,-0.0086,-0.0113,-0.0109,-0.0114,-0.0144,-0.0144,-0.0151,-0.0159,-0.0201,-0.0209,-0.0175,-0.0242,-0.025,-0.0273,-0.0235,-0.0284,-0.0287,-0.0309,-0.0308,-0.0307,-0.0208,0,0,0,0,0,0,-0.0084,-0.0085,-0.0082,-0.0107,-0.0113,-0.0114,-0.0144,-0.0151,-0.0158,-0.0162,-0.0205,-0.0212,-0.0243,-0.0269,-0.0276,-0.0239,-0.0289,-0.031,-0.0309,-0.0307,-0.0212,-0.0203,-0.0195,0,0,0,0,0,-0.0083,-0.0067,-0.0082,-0.0084,-0.0107,-0.0113,-0.0118,-0.0143,-0.0158,-0.0154,-0.019,-0.0211,-0.0262,-0.0271,-0.0279,-0.0242,-0.0311,-0.0309,-0.0307,-0.0216,-0.0205,-0.0196,0,0,0,0,0,0,-0.0055,-0.0071,-0.0087,-0.0078,-0.0091,-0.0119,-0.0117,-0.0135,-0.0161,-0.0164,-0.021,-0.022,-0.0226,-0.0251,-0.026,-0.0245,-0.0285,-0.0285,-0.0213,-0.0203,-0.0195,-0.018,-0.0291,0,0,0,0,0,-0.0048,-0.004,-0.0064,-0.0053,-0.006,-0.0089,-0.0095,-0.0109,-0.0133,-0.0145,-0.0178,-0.0206,-0.0224,-0.0228,-0.0257,-0.025,-0.0275,-0.0229,-0.022,-0.0213,-0.0207,-0.0199,-0.0189,-0.0299,-0.0299,-0.0299,0,0,-0.0035,-0.0039,-0.0038,-0.0047,-0.0062,-0.0058,-0.0094,-0.0091,-0.0091,-0.0148,-0.016,-0.0187,-0.022,-0.0217,-0.0218,-0.0229,-0.0199,-0.021,-0.0203,-0.0202,-0.0196,-0.0185,-0.0175,-0.0298,-0.0298,-0.0298,0,0,0.0004,-0.0009,0.0007,0.0007,-0.0002,-0.0025,-0.002,-0.0047,-0.0064,-0.0083,-0.0113,-0.0117,-0.0161,-0.016,-0.0168,-0.0131,-0.0165,-0.0133,-0.0065,-0.0056,-0.0047,-0.0039,-0.0072,-0.0068,-0.0115,-0.0115,-0.0115,0,0.0018,0.0043,0.0012,0.0035,0.0046,-0.0005,0.0021,-0.0008,-0.0038,-0.0048,-0.0077,-0.0096,-0.0132,-0.0092,-0.0086,-0.0108,-0.0125,-0.0097,-0.0044,-0.0036,-0.0029,-0.0066,-0.0062,-0.011,-0.011,-0.0111,-0.0111,0,0.0072,0.0093,0.0109,0.0115,0.0116,0.0138,0.01,0.0088,0.0052,0.0017,0.0026,-0.0003,0.0005,-0.0008,-0.0046,0.0008,-0.0029,-0.0042,-0.0064,-0.0012,-0.0054,-0.0052,-0.0103,-0.0104,-0.0106,-0.0107,0,0,0.0109,0.0139,0.0149,0.0179,0.017,0.0185,0.0176,0.0159,0.0162,0.0126,0.0175,0.0125,0.0127,0.012,0.0114,0.0107,0.0119,0.0058,0.0056,0.0032,0.0112,0.0012,0.0003,0.0124,0.0125,0.0126,0.0059,0,0.0163,0.0231,0.0229,0.0294,0.0321,0.0294,0.0292,0.0267,0.0225,0.0248,0.0234,0.0233,0.0176,0.0198,0.0206,0.0143,0.0131,0.0136,0.0058,0.0054,-0.0033,0.0006,0.0042,-0.0021,0.006,0.006,0.006,0,0.0208,0.0263,0.0335,0.0391,0.0401,0.0426,0.0438,0.0432,0.0414,0.0391,0.0419,0.0382,0.0405,0.0346,0.0293,0.0303,0.0218,0.0148,0.0144,0.0019,-0.0041,-0.0059,-0.0022,0.0063,0.0063,0.0063,0.0062,0,0.0241,0.033,0.0398,0.0425,0.0469,0.0502,0.051,0.0473,0.0458,0.0489,0.0488,0.0516,0.0549,0.0467,0.0318,0.0307,0.0239,0.0213,0.004,0.003,0.0027,0.0015,0.0165,0.0165,0.0165,0.0165,0.0166,0,0.028,0.0341,0.0433,0.0477,0.0558,0.0569,0.0606,0.0603,0.0614,0.0644,0.0588,0.0648,0.0574,0.0518,0.0381,0.022,0.0293,0.005,0.0016,0.0057,0.0049,0.0096,0.0089,0.0163,0.0163,0.0164,0.0164,0,0.0261,0.0327,0.0416,0.0523,0.0565,0.0612,0.0648,0.0673,0.0653,0.0725,0.0732,0.0741,0.0667,0.0524,0.0405,0.0282,0.0124,0.0039,0.0064,0.0033,-0.011,-0.0111,-0.0149,-0.0153,-0.0156,-0.0159,-0.0161,0,0.0259,0.0308,0.044,0.0508,0.0561,0.0634,0.0684,0.0697,0.0743,0.0786,0.087,0.0798,0.084,0.0598,0.0339,0.0075,0.0053,-0.0103,-0.0129,-0.0107,-0.0137,-0.0133,-0.0129,-0.0096,-0.0098,-0.0099,-0.01,0,0.0267,0.03,0.0371,0.0526,0.0626,0.0706,0.0807,0.0853,0.0916,0.1003,0.1157,0.1179,0.092,0.0715,0.0283,0.0096,-0.006,-0.0145,-0.0078,-0.0041,-0.0068,-0.0094,-0.009,-0.0112,-0.0111,-0.011,-0.0109,-0.0109,0.0267,0.032,0.0443,0.0572,0.0683,0.0836,0.0927,0.1088,0.1251,0.1419,0.1407,0.1463,0.1101,0.0596,0.0228,-0.0176,-0.0162,-0.0281,-0.0272,-0.0262,-0.0262,-0.0295,-0.0383,-0.0384,-0.0384,-0.0384,-0.0384,0,0.0321,0.0395,0.0509,0.0695,0.0816,0.085,0.1062,0.1201,0.15,0.1621,0.1752,0.1429,0.1118,0.0679,0.0081,-0.029,-0.0274,-0.0409,-0.0289,-0.0277,-0.0266,-0.0262,-0.0386,-0.0387,-0.0387,-0.0388,0,0,0.0374,0.0488,0.0563,0.081,0.0905,0.1099,0.1224,0.1489,0.166,0.1843,0.1864,0.1766,0.125,0.0811,0.0298,-0.003,-0.0062,-0.01,-0.0064,0.0149,0.0166,-0.0166,-0.0144,0,0,0,0,0]}],[{"header":{"parameterUnit":"m.s-1","parameterCategory":2,"la1":30.2991,"la2":30.254,"lo1":-89.0895,"lo2":-89.0444,"dy":0.0017,"dx":0.0017,"nx":28,"ny":28,"refTime":"2023-08-01T21:00:00:Z","depth":"4","parameterNumber":2,"parameterNumberName":"U-component_of_CURRENTS"},"data":[0,0,0,0,0,0,0,0,0,0,0,0,0,0,0,0,0,0,0,0,0,0,0,0,0,0,0,0,0,0,0,0,0,0,0,0,0,0,0,0,0,0,0,0,0,0,0,0,0,0,0,0,0,0,0,0,0,0,0.174,0.1741,0,0.1804,0.1804,0.1805,0.1848,0.1849,0.1849,0.185,0.1893,0.1894,0.1894,0,0,0,0,0,0,0,0,0,0,0,0,0,0.1663,0.1664,0.174,0.1741,0.1742,0.1804,0.1804,0.1805,0.1848,0.1849,0.1849,0.185,0.1893,0.1894,0.1894,0,0,0,0,0,0,0,0,0,0,0,0,0,0.1705,0.1664,0.174,0.1774,0.1778,0.1804,0.1804,0.1805,0.1848,0.1849,0.185,0.185,0.1893,0.1894,0.1894,0.188,0,0,0.1897,0.1897,0,0,0,0,0,0,0,0,0.1703,0.1707,0.1768,0.1771,0.1776,0.1822,0.1794,0.183,0.1847,0.1817,0.185,0.1851,0.1869,0.1872,0.1877,0.1882,0.1884,0.1897,0.1897,0.1898,0.1898,0,0,0,0,0,0,0,0.17,0.1705,0.1761,0.1769,0.1774,0.1789,0.1796,0.1801,0.1833,0.182,0.1824,0.1837,0.1871,0.1876,0.1878,0.1884,0.1897,0.1898,0.1898,0.1898,0.2029,0.2032,0,0,0,0,0,0,0.1698,0.1702,0.1759,0.1764,0.1745,0.179,0.1797,0.1803,0.1834,0.1841,0.1836,0.1839,0.1874,0.1877,0.188,0.1959,0.1898,0.1899,0.1899,0.2026,0.203,0.2033,0,0,0,0,0,0,0.1696,0.1702,0.1757,0.1738,0.1746,0.1791,0.1797,0.1804,0.1852,0.1847,0.1853,0.1882,0.1875,0.1879,0.1918,0.1957,0.1899,0.19,0.2023,0.2027,0.2031,0.2056,0,0,0,0,0,0,0.1693,0.1701,0.1718,0.1737,0.1748,0.1794,0.1797,0.1805,0.1858,0.1863,0.1888,0.1891,0.1876,0.1917,0.1919,0.1957,0.19,0.2019,0.2025,0.203,0.2052,0.2061,0.2069,0,0,0,0,0,0.169,0.1703,0.1718,0.1726,0.1765,0.1795,0.1802,0.1834,0.186,0.1881,0.1903,0.1892,0.1955,0.1919,0.192,0.1961,0.2016,0.2023,0.2029,0.2048,0.2059,0.2069,0,0,0,0,0,0,0.1681,0.171,0.1726,0.1749,0.1783,0.1805,0.184,0.186,0.1895,0.1914,0.191,0.1914,0.197,0.197,0.1931,0.2023,0.1992,0.1999,0.2006,0.2017,0.2025,0.2054,0.1901,0,0,0,0,0,0.1686,0.1706,0.1736,0.1761,0.1788,0.1824,0.1849,0.1869,0.1898,0.1917,0.1926,0.1957,0.1993,0.2008,0.2029,0.2064,0.2086,0.2103,0.2111,0.2118,0.2148,0.2233,0.2252,0.2055,0.2055,0.2055,0,0,0.1684,0.1711,0.1719,0.1762,0.18,0.1825,0.1843,0.1894,0.1911,0.1914,0.1951,0.1985,0.2013,0.2055,0.2082,0.2061,0.2179,0.2127,0.2132,0.2159,0.2242,0.2261,0.2278,0.2059,0.2059,0.2058,0,0,0.169,0.1729,0.1748,0.1785,0.1848,0.1859,0.1885,0.1923,0.1947,0.1976,0.2004,0.2062,0.2086,0.212,0.2141,0.2216,0.2226,0.2242,0.2297,0.2379,0.2395,0.241,0.2418,0.2434,0.224,0.224,0.224,0,0.1695,0.1718,0.176,0.1801,0.1832,0.1879,0.1906,0.1932,0.197,0.2004,0.1994,0.2114,0.2115,0.2213,0.2239,0.2232,0.2272,0.2242,0.2388,0.2403,0.2418,0.2424,0.2441,0.2242,0.2242,0.2242,0.2242,0,0.1712,0.1745,0.1773,0.1825,0.1861,0.19,0.1939,0.1976,0.2005,0.2034,0.2142,0.217,0.2252,0.2265,0.2265,0.2397,0.2386,0.2387,0.2351,0.2439,0.2439,0.2456,0.2245,0.2245,0.2244,0.2243,0,0,0.1676,0.1761,0.1776,0.1797,0.1881,0.1898,0.1954,0.201,0.2062,0.2121,0.2188,0.2281,0.2348,0.2383,0.2422,0.2488,0.2584,0.2494,0.2497,0.2484,0.2741,0.254,0.2538,0.263,0.2634,0.2638,0.2681,0,0.1679,0.1717,0.178,0.1819,0.1829,0.1914,0.1958,0.2025,0.2079,0.2146,0.2246,0.2331,0.2381,0.2437,0.2525,0.2587,0.2642,0.257,0.2677,0.2679,0.2475,0.2556,0.2652,0.2693,0.2697,0.27,0.2702,0,0.1647,0.1687,0.1704,0.179,0.1816,0.1864,0.1957,0.2011,0.2137,0.2197,0.2345,0.2413,0.2566,0.2555,0.2759,0.2729,0.2752,0.2775,0.2777,0.2602,0.2511,0.2603,0.2733,0.2731,0.2728,0.2726,0.2724,0,0.1504,0.1619,0.1618,0.165,0.1759,0.1821,0.1908,0.2035,0.2093,0.2256,0.2321,0.2519,0.2613,0.2736,0.282,0.2812,0.2981,0.2953,0.2788,0.2771,0.2924,0.2909,0.3068,0.3068,0.3068,0.3068,0.3067,0,0.1405,0.1425,0.157,0.1562,0.1645,0.1757,0.184,0.1973,0.2115,0.22,0.2374,0.2468,0.2676,0.2785,0.2847,0.288,0.3019,0.2818,0.279,0.2926,0.2911,0.2932,0.2916,0.3069,0.3069,0.3068,0.3068,0,0.1202,0.1287,0.1311,0.147,0.1553,0.1607,0.1816,0.1869,0.2055,0.2167,0.2229,0.246,0.2633,0.2771,0.2927,0.2883,0.2929,0.2887,0.2996,0.297,0.2647,0.2632,0.2708,0.2702,0.2697,0.2692,0.2688,0,0.11,0.1074,0.1225,0.129,0.1384,0.1507,0.1599,0.1815,0.1892,0.2149,0.2197,0.24,0.2535,0.2619,0.2771,0.2852,0.2828,0.2796,0.2755,0.2655,0.2622,0.2615,0.2608,0.268,0.2679,0.2677,0.2676,0,0.0937,0.0977,0.1018,0.113,0.1249,0.1336,0.1512,0.1548,0.1784,0.1957,0.2125,0.2218,0.2375,0.2517,0.2584,0.2641,0.2799,0.274,0.2751,0.2713,0.2622,0.2592,0.2591,0.2657,0.266,0.2662,0.2663,0,0.0854,0.085,0.0908,0.1013,0.1118,0.1173,0.1269,0.142,0.1531,0.1855,0.1896,0.2145,0.235,0.2405,0.248,0.2513,0.2484,0.2398,0.2426,0.2448,0.2346,0.2191,0.2089,0,0,0,0,0,0.0774,0.077,0.0825,0.0909,0.097,0.1051,0.1224,0.1319,0.155,0.1623,0.1765,0.1914,0.2054,0.2183,0.2171,0.2333,0.2462,0.2301,0.2367,0.2555,0.2576,0.2482,0,0,0,0,0,0,0.0736,0.0755,0.0775,0.0786,0.0817,0.089,0.0986,0.1146,0.122,0.1473,0.1585,0.1768,0.1954,0.2049,0.2127,0.2159,0.2153,0.2454,0.2448,0.2543,0.2562,0.258,0.249,0,0,0,0,0]},{"header":{"parameterUnit":"m.s-1","parameterCategory":2,"la1":30.2991,"la2":30.254,"lo1":-89.0895,"lo2":-89.0444,"dy":0.0017,"dx":0.0017,"nx":28,"ny":28,"refTime":"2023-08-01T21:00:00:Z","depth":"4","parameterNumber":3,"parameterNumberName":"V-component_of_CURRENTS"},"data":[0,0,0,0,0,0,0,0,0,0,0,0,0,0,0,0,0,0,0,0,0,0,0,0,0,0,0,0,0,0,0,0,0,0,0,0,0,0,0,0,0,0,0,0,0,0,0,0,0,0,0,0,0,0,0,0,0,0,-0.0045,-0.0045,0,-0.0085,-0.0086,-0.0086,-0.0113,-0.0113,-0.0113,-0.0113,-0.0166,-0.0168,-0.0169,0,0,0,0,0,0,0,0,0,0,0,0,0,-0.0036,-0.0036,-0.0045,-0.0045,-0.0045,-0.0085,-0.0086,-0.0086,-0.0113,-0.0113,-0.0113,-0.0113,-0.0166,-0.0168,-0.0169,0,0,0,0,0,0,0,0,0,0,0,0,0,-0.0056,-0.0036,-0.0044,-0.0062,-0.0063,-0.0085,-0.0086,-0.0087,-0.0113,-0.0113,-0.0113,-0.0113,-0.0165,-0.0167,-0.017,-0.0183,0,0,-0.0176,-0.0177,0,0,0,0,0,0,0,0,-0.0055,-0.0057,-0.0059,-0.006,-0.0063,-0.0092,-0.0102,-0.0119,-0.0113,-0.0096,-0.0113,-0.0113,-0.0142,-0.0146,-0.0156,-0.0186,-0.0188,-0.0176,-0.0178,-0.0179,-0.0179,0,0,0,0,0,0,0,-0.0054,-0.0056,-0.0062,-0.0059,-0.0061,-0.0083,-0.0086,-0.0106,-0.012,-0.0097,-0.0099,-0.01,-0.0143,-0.0154,-0.0157,-0.0189,-0.0176,-0.0178,-0.0179,-0.018,-0.0249,-0.0249,0,0,0,0,0,0,-0.0042,-0.0054,-0.0061,-0.0064,-0.0057,-0.0083,-0.0086,-0.0084,-0.012,-0.0124,-0.01,-0.0101,-0.015,-0.0155,-0.0159,-0.0183,-0.0179,-0.0181,-0.0182,-0.0248,-0.0249,-0.0249,0,0,0,0,0,0,-0.0042,-0.0043,-0.006,-0.0059,-0.0062,-0.0083,-0.0081,-0.0085,-0.0092,-0.0121,-0.0127,-0.0103,-0.015,-0.0156,-0.0184,-0.0185,-0.0181,-0.0183,-0.0248,-0.0248,-0.0249,-0.0226,0,0,0,0,0,0,-0.0042,-0.0042,-0.004,-0.0057,-0.0061,-0.0065,-0.0081,-0.0086,-0.0093,-0.0094,-0.0125,-0.013,-0.0151,-0.0181,-0.0186,-0.0188,-0.0185,-0.0247,-0.0248,-0.0249,-0.0226,-0.0226,-0.0226,0,0,0,0,0,-0.0041,-0.0035,-0.004,-0.0041,-0.0057,-0.0064,-0.0069,-0.0085,-0.0092,-0.0093,-0.0123,-0.0129,-0.0191,-0.0183,-0.0189,-0.0191,-0.0246,-0.0248,-0.0249,-0.0227,-0.0226,-0.0226,0,0,0,0,0,0,-0.0031,-0.0037,-0.0043,-0.0039,-0.0048,-0.0068,-0.0071,-0.0081,-0.0105,-0.0108,-0.0138,-0.0145,-0.0174,-0.0186,-0.0177,-0.0215,-0.0219,-0.0221,-0.02,-0.02,-0.02,-0.0175,-0.0187,0,0,0,0,0,-0.0027,-0.0022,-0.0034,-0.003,-0.0034,-0.0052,-0.0059,-0.0067,-0.0088,-0.0098,-0.012,-0.015,-0.0184,-0.0193,-0.0224,-0.0239,-0.0256,-0.0245,-0.0245,-0.0245,-0.023,-0.0268,-0.027,-0.0253,-0.0253,-0.0253,0,0,-0.0022,-0.0023,-0.0022,-0.0027,-0.0038,-0.0036,-0.0056,-0.006,-0.006,-0.01,-0.0113,-0.0153,-0.0191,-0.0218,-0.0229,-0.0225,-0.026,-0.0246,-0.0245,-0.0231,-0.0269,-0.0271,-0.0272,-0.0254,-0.0254,-0.0254,0,0,-0.0005,-0.0012,-0.0002,-0.0002,-0.0008,-0.0022,-0.002,-0.0037,-0.005,-0.0068,-0.0106,-0.0142,-0.0179,-0.0211,-0.0232,-0.0247,-0.0265,-0.0257,-0.0227,-0.0265,-0.0266,-0.0267,-0.0297,-0.0301,-0.0248,-0.0248,-0.0248,0,-0.0001,0.0019,-0.0001,0.0014,0.0024,-0.0012,0.0008,-0.0017,-0.0041,-0.0046,-0.0066,-0.014,-0.0176,-0.0213,-0.0224,-0.0245,-0.0266,-0.0224,-0.0263,-0.0265,-0.0266,-0.0296,-0.0301,-0.0247,-0.0247,-0.0247,-0.0248,0,0.0029,0.0047,0.0054,0.0062,0.0063,0.0075,0.005,0.004,0.0017,-0.0005,-0.0046,-0.011,-0.0144,-0.0174,-0.0205,-0.0236,-0.0249,-0.0265,-0.0259,-0.0266,-0.0298,-0.0303,-0.0246,-0.0246,-0.0247,-0.0247,0,0,0.0041,0.0069,0.0076,0.0106,0.0099,0.0112,0.01,0.009,0.0094,0.0037,0.003,-0.0052,-0.0086,-0.0113,-0.0165,-0.0205,-0.0249,-0.0234,-0.0236,-0.0254,-0.0326,-0.0322,-0.0328,-0.0273,-0.0274,-0.0274,-0.0345,0,0.0075,0.013,0.0127,0.018,0.021,0.0188,0.019,0.0173,0.0138,0.0113,0.0029,-0.0003,-0.0064,-0.0082,-0.0136,-0.0228,-0.026,-0.0227,-0.0323,-0.0326,-0.0315,-0.0333,-0.0276,-0.0349,-0.035,-0.0351,-0.0352,0,0.011,0.0151,0.0218,0.027,0.028,0.0296,0.0313,0.0313,0.0254,0.0225,0.0163,0.0095,0.001,-0.0035,-0.0178,-0.0155,-0.0226,-0.0296,-0.0301,-0.0303,-0.0331,-0.0341,-0.0362,-0.0361,-0.036,-0.036,-0.0359,0,0.016,0.0215,0.0283,0.0303,0.0344,0.0368,0.0377,0.0351,0.037,0.0297,0.0293,0.0167,0.0117,-0.0006,-0.0162,-0.0165,-0.032,-0.0339,-0.0398,-0.0399,-0.039,-0.0388,-0.0412,-0.0412,-0.0412,-0.0412,-0.0412,0,0.021,0.0266,0.0316,0.0364,0.0444,0.0441,0.0502,0.0486,0.0468,0.0489,0.0365,0.0338,0.0125,0.0003,-0.0139,-0.0293,-0.0299,-0.0391,-0.0417,-0.0381,-0.0376,-0.0394,-0.0391,-0.0414,-0.0414,-0.0413,-0.0413,0,0.0262,0.0293,0.0384,0.045,0.048,0.0539,0.0604,0.0631,0.061,0.0628,0.0614,0.0467,0.0296,0.0085,-0.0132,-0.0241,-0.04,-0.0442,-0.0387,-0.0409,-0.0457,-0.0452,-0.051,-0.051,-0.0511,-0.0511,-0.0511,0,0.0292,0.0349,0.0463,0.052,0.0556,0.064,0.069,0.0703,0.0736,0.0708,0.0716,0.0562,0.0437,0.0134,-0.01,-0.0375,-0.0405,-0.0475,-0.047,-0.0447,-0.0467,-0.0462,-0.0456,-0.0512,-0.0512,-0.0512,-0.0512,0,0.0358,0.0403,0.048,0.0601,0.0676,0.0767,0.0836,0.0877,0.0886,0.0874,0.0807,0.0632,0.0433,0.0153,-0.0068,-0.0262,-0.0435,-0.048,-0.048,-0.0475,-0.045,-0.0469,-0.0463,-0.0513,-0.0513,-0.0513,-0.0513,0,0.0407,0.0465,0.0564,0.0671,0.0769,0.0852,0.0889,0.0921,0.096,0.0928,0.0899,0.0669,0.0526,0.0213,0.0008,-0.0195,-0.0236,-0.0279,-0.0291,-0.0292,-0.022,-0.0156,-0.0146,0,0,0,0,0,0.045,0.0517,0.0614,0.073,0.0824,0.0884,0.0968,0.0988,0.1006,0.098,0.0949,0.0762,0.044,0.0286,0.0087,-0.001,-0.0282,-0.0247,-0.034,-0.0521,-0.0519,-0.0473,0,0,0,0,0,0,0.0478,0.0576,0.0623,0.0758,0.0836,0.0942,0.0996,0.1006,0.0997,0.0978,0.0804,0.0731,0.0405,0.0551,0.0086,0.0022,-0.0058,-0.04,-0.0404,-0.0522,-0.052,-0.0519,-0.0471,0,0,0,0,0]}]]